Viroqua, WI

4:50 PM CST on December 07, 2019 (GMT -0600)
Viroqua

Weather History for KY51 - November, 2019

Change the Weather History Date:

Saturday, November 16, 2019

  Actual Average (KCMY) Record (KCMY)
Temperature  
Mean Temperature 32 °F -  
Max Temperature 38 °F 43 °F 71 °F (1953)
Min Temperature 27 °F 24 °F 6 °F (1959)
Degree Days  
Heating Degree Days 32    
Moisture  
Dew Point 29 °F    
Average Humidity 88    
Maximum Humidity 97    
Minimum Humidity 67    
Precipitation  
Precipitation 0.00 in - - ()
Sea Level Pressure  
Sea Level Pressure 30.23 in    
Wind  
Wind Speed 10 mph ()    
Max Wind Speed 17 mph    
Max Gust Speed 22 mph    
Visibility 8.8 miles    
Events      
Averages and records for this station are not official NWS values.
T = Trace of Precipitation, MM = Missing Value Source: Averaged Metar Reports

Daily Weather History Graph

Daily Weather History Graph

Search for Another Location

Airport or City:

Astronomy

Nov. 16, 2019 Rise Set
Actual Time 6:58 AM CST 4:37 PM CST
Civil Twilight 6:27 AM CST 5:08 PM CST
Nautical Twilight 5:52 AM CST 5:43 PM CST
Astronomical Twilight 5:18 AM CST 6:17 PM CST
Moon 8:07 PM CST (11/16) 10:56 AM CST (11/16)
Length of Visible Light 10h 41m
Length of Day
9h 39m
Waning Gibbous, 82% of the Moon is Illuminated
Nov 16
Waning Gibbous
Nov 19
Last Quarter
Nov 26
New
Dec 4
First Quarter
Dec 11
Full

Hourly Weather History & Observations

Time (CST) Temp. Windchill Dew Point Humidity Pressure Visibility Wind Dir Wind Speed Gust Speed Precip Events Conditions
12:15 AM 31.1 °F 24.5 °F 29.3 °F 93% 30.36 in 10.0 mi SE 6.9 mph - N/A   Clear
12:35 AM 30.6 °F 23.8 °F 29.1 °F 94% 30.36 in 10.0 mi SE 6.9 mph - N/A   Clear
12:55 AM 30.2 °F 22.6 °F 28.8 °F 94% 30.35 in 10.0 mi SE 8.1 mph - N/A   Clear
1:15 AM 30.2 °F 22.6 °F 28.8 °F 94% 30.35 in 10.0 mi SE 8.1 mph - N/A   Clear
1:35 AM 30.0 °F 22.4 °F 28.4 °F 94% 30.35 in 10.0 mi SE 8.1 mph - N/A   Clear
1:55 AM 29.8 °F 21.5 °F 28.4 °F 94% 30.35 in 10.0 mi SE 9.2 mph - N/A   Clear
2:15 AM 29.1 °F 20.6 °F 27.9 °F 95% 30.35 in 10.0 mi SE 9.2 mph - N/A   Clear
2:35 AM 29.3 °F 21.5 °F 28.0 °F 95% 30.35 in 10.0 mi SE 8.1 mph - N/A   Clear
2:55 AM 29.3 °F 20.2 °F 27.9 °F 94% 30.34 in 10.0 mi ESE 10.4 mph - N/A   Clear
3:15 AM 29.3 °F 20.8 °F 27.5 °F 93% 30.34 in 10.0 mi SE 9.2 mph - N/A   Clear
3:55 AM 29.5 °F 21.1 °F 27.3 °F 92% 30.34 in 10.0 mi SE 9.2 mph - N/A   Clear
4:15 AM 29.3 °F 20.8 °F 27.3 °F 92% 30.34 in 10.0 mi SE 9.2 mph - N/A   Clear
4:35 AM 29.3 °F 19.6 °F 27.3 °F 92% 30.34 in 7.0 mi SE 11.5 mph - N/A   Clear
5:15 AM 29.1 °F 19.4 °F 27.0 °F 92% 30.33 in 7.0 mi SE 11.5 mph - N/A   Clear
5:35 AM 29.1 °F 19.4 °F 27.1 °F 92% 30.33 in 7.0 mi SE 11.5 mph - N/A   Clear
5:55 AM 28.8 °F 20.9 °F 27.0 °F 93% 30.34 in 7.0 mi SE 8.1 mph - N/A   Clear
6:15 AM 28.2 °F 19.5 °F 26.6 °F 94% 30.34 in 7.0 mi SE 9.2 mph - N/A   Clear
6:35 AM 28.2 °F 19.5 °F 26.6 °F 94% 30.34 in 7.0 mi SE 9.2 mph - N/A   Clear
6:55 AM 27.5 °F 19.3 °F 26.6 °F 96% 30.34 in 7.0 mi SE 8.1 mph - N/A   Clear
7:35 AM 27.9 °F 18.4 °F 27.1 °F 97% 30.33 in 5.0 mi SE 10.4 mph - N/A   Clear
7:55 AM 28.2 °F 18.9 °F 27.5 °F 97% 30.32 in 5.0 mi SE 10.4 mph - N/A   Clear
8:15 AM 29.1 °F 19.4 °F 28.0 °F 96% 30.32 in 7.0 mi SE 11.5 mph - N/A   Clear
8:35 AM 30.2 °F 21.3 °F 28.8 °F 94% 30.32 in 7.0 mi SE 10.4 mph - N/A   Clear
8:55 AM 30.9 °F 20.7 °F 29.3 °F 94% 30.32 in 7.0 mi SE 13.8 mph - N/A   Clear
9:15 AM 31.6 °F 22.6 °F 29.7 °F 92% 30.32 in 10.0 mi SE 11.5 mph - N/A   Clear
9:35 AM 32.0 °F 24.2 °F 30.0 °F 92% 30.32 in 10.0 mi SSE 9.2 mph 12.7 mph N/A   Clear
9:55 AM 32.9 °F 24.1 °F 30.2 °F 90% 30.31 in 10.0 mi SSE 11.5 mph 18.4 mph N/A   Clear
10:15 AM 33.8 °F 23.5 °F 31.1 °F 90% 30.30 in 10.0 mi SSE 16.1 mph - N/A   Clear
10:35 AM 34.7 °F 24.7 °F 31.1 °F 87% 30.29 in 10.0 mi SSE 16.1 mph 20.7 mph N/A   Clear
10:55 AM 36.0 °F 26.0 °F 31.3 °F 83% 30.28 in 10.0 mi SSE 17.3 mph 20.7 mph N/A   Clear
11:15 AM 35.6 °F 25.9 °F 30.7 °F 82% 30.28 in 10.0 mi SSE 16.1 mph 21.9 mph N/A   Clear
11:35 AM 35.6 °F 27.1 °F 30.7 °F 82% 30.27 in 10.0 mi South 12.7 mph 16.1 mph N/A   Clear
11:55 AM 36.5 °F 28.7 °F 31.5 °F 82% 30.26 in 10.0 mi SSE 11.5 mph - N/A   Clear
12:15 PM 35.8 °F 28.3 °F 31.5 °F 84% 30.25 in 10.0 mi SSE 10.4 mph - N/A   Clear
12:35 PM 36.5 °F 29.2 °F 32.0 °F 84% 30.23 in 10.0 mi SSE 10.4 mph - N/A   Clear
12:55 PM 36.9 °F 30.1 °F 32.0 °F 83% 30.22 in 10.0 mi SE 9.2 mph - N/A   Clear
1:15 PM 37.4 °F 29.3 °F 31.3 °F 79% 30.21 in 10.0 mi SSE 12.7 mph 17.3 mph N/A   Clear
1:35 PM 37.6 °F 31.0 °F 30.9 °F 77% 30.21 in 10.0 mi SSE 9.2 mph - N/A   Clear
1:55 PM 38.3 °F 30.5 °F 29.5 °F 71% 30.20 in 10.0 mi SSE 12.7 mph 18.4 mph N/A   Clear
2:15 PM 38.7 °F 31.4 °F 29.5 °F 70% 30.18 in 10.0 mi SSE 11.5 mph - N/A   Clear
2:35 PM 38.7 °F 30.9 °F 28.4 °F 67% 30.18 in 10.0 mi SSE 12.7 mph 17.3 mph N/A   Clear
2:55 PM 37.8 °F 30.7 °F 28.6 °F 69% 30.17 in 10.0 mi SSE 10.4 mph - N/A   Clear
3:15 PM 37.6 °F 30.0 °F 29.1 °F 72% 30.17 in 10.0 mi SE 11.5 mph - N/A   Clear
3:35 PM 37.6 °F 28.8 °F 28.6 °F 70% 30.16 in 10.0 mi SE 15.0 mph - N/A   Clear
3:55 PM 37.6 °F 30.0 °F 29.3 °F 72% 30.16 in 10.0 mi SE 11.5 mph - N/A   Clear
4:15 PM 36.9 °F 27.8 °F 28.9 °F 73% 30.15 in 10.0 mi SSE 15.0 mph 18.4 mph N/A   Clear
4:35 PM 36.3 °F 28.4 °F 29.3 °F 76% 30.14 in 10.0 mi SE 11.5 mph - N/A   Clear
4:55 PM 35.6 °F 27.1 °F 29.3 °F 78% 30.14 in 10.0 mi SSE 12.7 mph - N/A   Clear
5:15 PM 34.9 °F 27.1 °F 29.8 °F 82% 30.15 in 10.0 mi SSE 10.4 mph - N/A   Clear
5:35 PM 34.5 °F 25.3 °F 30.2 °F 84% 30.13 in 10.0 mi SE 13.8 mph - N/A   Clear
5:55 PM 34.0 °F 23.8 °F 30.0 °F 85% 30.12 in 10.0 mi SE 16.1 mph - N/A   Clear
6:15 PM 33.6 °F 23.7 °F 30.0 °F 87% 30.12 in 10.0 mi SE 15.0 mph 20.7 mph N/A   Clear
6:35 PM 33.3 °F 24.6 °F 30.2 °F 89% 30.13 in 10.0 mi SSE 11.5 mph 18.4 mph N/A   Clear
7:15 PM 33.1 °F 24.9 °F 30.9 °F 92% 30.13 in 7.0 mi SE 10.4 mph - N/A   Clear
7:35 PM 32.9 °F 23.7 °F 30.9 °F 92% 30.12 in 7.0 mi SE 12.7 mph 18.4 mph N/A   Clear
8:15 PM 32.4 °F 24.6 °F 30.9 °F 94% 30.10 in 7.0 mi SSE 9.2 mph 18.4 mph N/A   Clear
8:35 PM 32.4 °F 23.0 °F 30.9 °F 94% 30.09 in 7.0 mi SSE 12.7 mph - N/A   Clear
8:55 PM 32.4 °F 24.0 °F 30.7 °F 94% 30.10 in 7.0 mi SSE 10.4 mph - N/A   Clear
9:15 PM 32.9 °F 23.2 °F 30.9 °F 92% 30.10 in 7.0 mi SSE 13.8 mph 17.3 mph N/A   Scattered Clouds
9:35 PM 32.5 °F 22.7 °F 30.6 °F 92% 30.10 in 7.0 mi SSE 13.8 mph 20.7 mph N/A   Clear
9:55 PM 32.9 °F 22.8 °F 30.6 °F 91% 30.09 in 7.0 mi SSE 15.0 mph - N/A   Clear
10:15 PM 32.9 °F 23.7 °F 30.9 °F 92% 30.10 in 7.0 mi SSE 12.7 mph - N/A   Clear
10:35 PM 32.9 °F 24.1 °F 30.9 °F 92% 30.10 in 7.0 mi South 11.5 mph - N/A   Clear
10:55 PM 32.9 °F 24.1 °F 30.9 °F 92% 30.09 in 7.0 mi SSE 11.5 mph - N/A   Clear
11:35 PM 33.3 °F 25.1 °F 31.1 °F 92% 30.08 in 7.0 mi SSE 10.4 mph - N/A   Mostly Cloudy
11:55 PM 33.8 °F 25.3 °F 31.1 °F 90% 30.08 in 7.0 mi South 11.5 mph 17.3 mph N/A   Mostly Cloudy